CZ-3B DEB, 40850

Orbit data source: Space-Track

CZ-3B DEB, 40850 is space debris in HEO originally from a launch on Mon, 19 Dec 2011 UTC launched from the Xichang Space Center, China (XSC). Debris objects in space refer to the collection of defunct objects orbiting the Earth. Examples of debris include non-operational satellites, rocket bodies, and fragments generated from explosions, collisions, or faulty payload assembly.

Loading next visibility...
Identifier
40850, 2011-077AF
Orbit
HEO
Last TLE update
2 weeks ago
Origin
Manufacturer
CALT
Mission
Spacecraft
Bus & Motor
Unknown
Mass
Unknown
Launch date (UTC)
2011-12-19 (13 years ago)
Launch vehicle
Unknown
Launch site
Xichang Space Center, China (XSC)
Object type
Payload
Rocket body
Debris
Shape & HBR
Unknown
Radar Cross Section
Medium (>0.1 m² and <1 m²)

Expand to show TLE details & history

TLE from 2 weeks ago
0 CZ-3B DEB
1 40850U 11077AF  25122.98322680  .00001196  00000-0  13980-1 0  9992
2 40850  25.9538 359.7552 7473584  58.6783 353.3068  1.92783660 71370
Epoch: 2025-05-02T23:35Z
TLE epoch observation values (Epoch: 2025-05-02T23:35:50.795Z)
Latitude
-0.00011°
Longitude
144.67534°
Altitude
2,247.401 km
Speed
8.82 km/s
True Right ascension
23h 59m 04s
True Declination
0° 00' 00"
Sunlit
Object was in daylight at epoch
Visualization orbit readout
Latitude
-25.95965°
Longitude
47.7692°
Altitude
33,201.264 km
Speed
2.35 km/s
Apparent Right ascension
17h 11m 47s
Apparent Declination
-34° 03' 35"
Sunlit
Object is in daylight
Visualization observer readout
Local Sidereal Time
19:45:47
Azimuth
211.38° SW
Elevation
7.926°
Doppler factor
1
Orbital elements
Apogee altitude
41,279.567 km
Perigee altitude
512.446 km
Semi-major axis
27,274.144 km
Eccentricity
0.74736
Inclination
25.9538°
RAAN
359.7552°
Arg. of periapsis
58.6783°
True anomaly
Unknown
Mean anomaly
353.3068°
Eccentric anomaly
Unknown
Mean motion
0.48186 °/min
Orbital period
747.11 mins
BSTAR
0.01398
Loading maneuver chart data...
Loading SW <> Apogee altitude chart data...
Loading historical data...
Loading historical data...
Loading historical data...
Loading historical data...
Loading historical data...
Loading historical data...
Loading historical data...

CZ-3B DEB Visibility forecast

Observer location: undefined°, undefined°

Span
Click to sort rows by Start time (UTC) header in descending order
Start Az.
Max El. time (UTC)
Max El. Az.
Max El.
End time (UTC)
End Az.
414 mins2025-05-20 02:55:47.655Z243.834° WSW2025-05-20 03:23:47.655Z193.085° SSW26.816°2025-05-20 09:49:47.655Z212.335° SW
|